TimeCDT,TemperatureF,Dew PointF,Humidity,Sea Level PressureIn,VisibilityMPH,Wind Direction,Wind SpeedMPH,Gust SpeedMPH,PrecipitationIn,Events,Conditions,WindDirDegrees,DateUTC
12:15 AM,59.0,57.2,94,30.10,10.0,SSW,3.5,-,N/A,,Clear,200,2013-08-19 05:15:00
12:35 AM,55.4,55.4,100,30.10,10.0,South,3.5,-,N/A,,Clear,190,2013-08-19 05:35:00
12:55 AM,57.2,55.4,94,30.10,7.0,Calm,Calm,-,N/A,,Clear,0,2013-08-19 05:55:00
1:15 AM,57.2,55.4,94,30.10,10.0,Calm,Calm,-,N/A,,Clear,0,2013-08-19 06:15:00
1:35 AM,55.4,55.4,100,30.10,10.0,Calm,Calm,-,N/A,,Clear,0,2013-08-19 06:35:00
1:55 AM,57.2,57.2,100,30.09,10.0,Calm,Calm,-,N/A,,Clear,0,2013-08-19 06:55:00
2:15 AM,55.4,55.4,100,30.09,10.0,Calm,Calm,-,N/A,,Clear,0,2013-08-19 07:15:00
2:35 AM,55.4,55.4,100,30.09,10.0,SSW,5.8,-,N/A,,Clear,210,2013-08-19 07:35:00
2:55 AM,57.2,55.4,94,30.08,10.0,SSW,5.8,-,N/A,,Clear,210,2013-08-19 07:55:00
3:15 AM,57.2,55.4,94,30.08,10.0,SSW,4.6,-,N/A,,Clear,210,2013-08-19 08:15:00
3:35 AM,57.2,55.4,94,30.08,10.0,SSW,4.6,-,N/A,,Clear,200,2013-08-19 08:35:00
3:55 AM,53.6,53.6,100,30.08,10.0,SSW,4.6,-,N/A,,Clear,200,2013-08-19 08:55:00
4:15 AM,53.6,53.6,100,30.08,10.0,Calm,Calm,-,N/A,,Clear,0,2013-08-19 09:15:00
4:35 AM,55.4,55.4,100,30.08,10.0,Calm,Calm,-,N/A,,Clear,0,2013-08-19 09:35:00
4:55 AM,55.4,55.4,100,30.08,10.0,South,4.6,-,N/A,,Mostly Cloudy,190,2013-08-19 09:55:00
5:15 AM,55.4,53.6,94,30.07,10.0,SSW,5.8,-,N/A,,Scattered Clouds,200,2013-08-19 10:15:00
5:35 AM,53.6,53.6,100,30.08,10.0,SSW,4.6,-,N/A,,Clear,210,2013-08-19 10:35:00
5:45 AM,53.6,53.6,100,30.08,10.0,SSW,5.8,-,N/A,,Clear,200,2013-08-19 10:45:00
6:50 AM,55.4,55.4,100,30.08,10.0,South,5.8,-,N/A,,Clear,170,2013-08-19 11:50:00
7:58 AM,60.8,60.8,100,30.07,10.0,SSW,6.9,-,N/A,,Clear,200,2013-08-19 12:58:00
8:58 AM,66.2,60.8,83,30.07,10.0,SSW,5.8,-,N/A,,Clear,210,2013-08-19 13:58:00
9:45 AM,69.8,60.8,73,30.09,10.0,SSW,6.9,-,N/A,,Clear,210,2013-08-19 14:45:00
11:55 AM,75.2,62.6,65,30.07,10.0,SSW,15.0,-,N/A,,Clear,200,2013-08-19 16:55:00
12:47 PM,77.0,62.6,61,30.04,10.0,WSW,13.8,19.6,N/A,,Clear,240,2013-08-19 17:47:00
1:45 PM,78.8,60.8,54,30.04,10.0,SW,12.7,-,N/A,,Clear,230,2013-08-19 18:45:00
2:50 PM,78.8,60.8,54,30.04,10.0,SSW,11.5,-,N/A,,Partly Cloudy,210,2013-08-19 19:50:00
3:50 PM,80.6,60.8,51,30.03,10.0,SW,10.4,-,N/A,,Mostly Cloudy,230,2013-08-19 20:50:00
4:50 PM,78.8,62.6,57,30.02,10.0,WSW,12.7,-,N/A,,Mostly Cloudy,240,2013-08-19 21:50:00
5:50 PM,78.8,62.6,57,30.01,10.0,SW,11.5,-,N/A,,Scattered Clouds,230,2013-08-19 22:50:00
6:45 PM,75.2,64.4,69,30.01,10.0,SW,6.9,-,N/A,,Clear,220,2013-08-19 23:45:00
7:45 PM,71.6,64.4,78,30.01,10.0,SSW,4.6,-,N/A,,Clear,210,2013-08-20 00:45:00
8:45 PM,69.8,64.4,83,30.01,7.0,SSW,5.8,-,N/A,,Haze,200,2013-08-20 01:45:00
9:50 PM,68.0,64.4,88,30.01,7.0,SSW,6.9,-,N/A,,Clear,200,2013-08-20 02:50:00
10:15 PM,68.0,62.6,83,30.01,7.0,SSW,8.1,-,N/A,,Clear,210,2013-08-20 03:15:00
10:35 PM,66.2,62.6,88,30.01,10.0,SSW,8.1,-,N/A,,Clear,210,2013-08-20 03:35:00
10:55 PM,66.2,62.6,88,30.01,7.0,SSW,6.9,-,N/A,,Clear,210,2013-08-20 03:55:00
11:15 PM,66.2,62.6,88,30.02,7.0,SSW,8.1,-,N/A,,Clear,200,2013-08-20 04:15:00
11:35 PM,64.4,62.6,94,30.02,7.0,SSW,8.1,-,N/A,,Clear,210,2013-08-20 04:35:00
11:55 PM,64.4,62.6,94,30.02,7.0,SSW,6.9,-,N/A,,Clear,200,2013-08-20 04:55:00